Regional Weather Roundup
Issued by NWS

Home | Current Version | Previous Version | Text Only | Print | Product List | Glossary On
Versions: 1 2 3 4 5 6 7 8 9 10 11 12 13 14 15 16 17 18 19 20 21 22 23 24 25 26 27 28 29 30 31 32 33 34 35 36 37 38 39 40 41 42 43 44 45 46 47 48 49 50
000
ASUS43 KTOP 252359
RWRKS

WEATHER ROUNDUP FOR KANSAS
NATIONAL WEATHER SERVICE GOODLAND KS
700 PM CDT SAT MAR 25 2017

NOTE:  "FAIR" INDICATES FEW OR NO CLOUDS BELOW 12,000 FEET WITH NO
SIGNIFICANT WEATHER AND/OR OBSTRUCTIONS TO VISIBILITY.

KSZ001>006-013>018-027>032-041>047-260100-
NORTHWEST KANSAS

CITY           SKY/WX    TMP DP  RH WIND       PRES   REMARKS
GOODLAND       CLOUDY    57  27  31 CALM      29.88F
6HR MIN TEMP:  53; 6HR MAX TEMP:  60;

HAYS             N/A     49  40  71 NE7       29.92R
HILL CITY      SUNNY     52  42  69 E10       29.91S
6HR MIN TEMP:  46; 6HR MAX TEMP:  56;

RUSSELL        PTCLDY    48  38  68 N7        29.90S
6HR MIN TEMP:  42; 6HR MAX TEMP:  50;

$$

KSZ061>065-074>080-084>089-260100-
SOUTHWEST KANSAS

CITY           SKY/WX    TMP DP  RH WIND       PRES   REMARKS
DODGE CITY     SUNNY     62  39  42 NE12      29.87F
6HR MIN TEMP:  57; 6HR MAX TEMP:  65;

GARDEN CITY    CLOUDY    61  31  32 CALM      29.87F
6HR MIN TEMP:  58; 6HR MAX TEMP:  66;

GREAT BEND     CLEAR     51  41  68 NE9       29.92R
LIBERAL        CLOUDY    64  25  22 NE5       29.89F
$$

KSZ066>073-081>083-090>101-260100-
SOUTHEAST KANSAS

CITY           SKY/WX    TMP DP  RH WIND       PRES   REMARKS
CHANUTE        CLOUDY    48  45  89 NW10      29.89R
6HR MIN TEMP:  48; 6HR MAX TEMP:  49; 6HR PCP:  0.02;

COFFEYVILLE    CLOUDY    49  42  77 W7        29.92R
6HR MIN TEMP:  48; 6HR MAX TEMP:  50; 6HR PCP: TRACE;

HUTCHINSON     CLOUDY    45  39  79 N8        29.92S
6HR MIN TEMP:  43; 6HR MAX TEMP:  47;

MEDICINE LODGE   N/A     55  40  56 N9        29.90R
NEWTON         CLOUDY    43  41  93 N10       29.92R
PARSONS        CLOUDY    49  43  80 W8        29.91S
6HR MIN TEMP:  48; 6HR MAX TEMP:  50; 6HR PCP: TRACE;

WICHITA INTL   CLOUDY    46  41  82 N10       29.92R
6HR MIN TEMP:  43; 6HR MAX TEMP:  47;

WICHITA JABRA  CLOUDY    45  41  86 N12       29.90F
6HR MIN TEMP:  43; 6HR MAX TEMP:  47; 6HR PCP: TRACE;

WINFIELD       CLOUDY    47  41  80 NW6       29.93S
6HR MIN TEMP:  45; 6HR MAX TEMP:  49;

$$

KSZ007>012-019>026-033>040-048>060-102>105-260100-
NORTHEAST KANSAS

CITY           SKY/WX    TMP DP  RH WIND       PRES   REMARKS
CONCORDIA      CLOUDY    42  40  92 N9        29.93R
6HR MIN TEMP:  40; 6HR MAX TEMP:  42;

EMPORIA        CLOUDY    45  45 100 NW12      29.89S FOG
6HR MIN TEMP:  44; 6HR MAX TEMP:  46;

LAWRENCE       CLOUDY    47  46  97 NW14      29.88R
6HR MIN TEMP:  47; 6HR MAX TEMP:  52; 6HR PCP:  0.07;

MANHATTAN      LGT RAIN  45  43  93 N6        29.92R FOG
6HR MIN TEMP:  45; 6HR MAX TEMP:  47; 6HR PCP: TRACE;

OLATHE IND     CLOUDY    48  46  93 NW15      29.86R
6HR MIN TEMP:  48; 6HR MAX TEMP:  54; 6HR PCP:  0.01;

OLATHE EXE     CLOUDY    49  48  97 NW9       29.85R
6HR MIN TEMP:  49; 6HR MAX TEMP:  55; 6HR PCP: TRACE;

SALINA         CLOUDY    46  40  79 N10       29.93R
6HR MIN TEMP:  44; 6HR MAX TEMP:  46; 6HR PCP: TRACE;

TOPEKA BILLARD CLOUDY    47  44  90 N10       29.89R
6HR MIN TEMP:  47; 6HR MAX TEMP:  50; 6HR PCP: TRACE;

TOPEKA FORBES  CLOUDY    47  44  90 N12       29.89R
6HR MIN TEMP:  47; 6HR MAX TEMP:  51;

$$




USA.gov is the U.S. government's official web portal to all federal, state and local government web resources and services.